Weather History for Joplin, MO

Change the Weather History Date:

Friday, August 2, 2013

  Actual Average Record
Temperature  
Mean Temperature 81 °F 81 °F  
Max Temperature 90 °F 92 °F 110 °F (2011)
Min Temperature 72 °F 70 °F 55 °F (1973)
Degree Days  
Heating Degree Days 0 0  
Month to date heating degree days 0 0  
Since 1 June heating degree days 12 5  
Since 1 July heating degree days 0 0  
Cooling Degree Days 16 16  
Month to date cooling degree days 27 32  
Year to date cooling degree days 902 1003  
Since 1 June cooling degree days 758 823  
Growing Degree Days 30 (Base 50)    
Moisture  
Dew Point 71 °F    
Average Humidity 77    
Maximum Humidity 88    
Minimum Humidity 65    
Precipitation  
Precipitation 0.01 in 0.10 in 1.99 in (1981)
Month to date precipitation 0.01 0.19  
Year to date precipitation 30.87 27.81  
Snow  
Snow 0.00 in - - ()
Month to date snowfall 0.0  
Since 1 June snowfall 0.0  
Since 1 July snowfall 0.0  
Snow Depth 0.00 in    
Sea Level Pressure  
Sea Level Pressure 29.90 in    
Wind  
Wind Speed 8 mph (SSE)    
Max Wind Speed 18 mph    
Max Gust Speed 25 mph    
Visibility 10 miles    
Events      
T = Trace of Precipitation, MM = Missing Value Source: NWS Daily Summary

Daily Weather History Graph

Daily Weather History Graph

Search for Another Location

Airport:

Trip Planner

Search our weather history database for the weather conditions in past years. The results will help you decide how hot, cold, wet, or windy it might be!

Date:

Astronomy

Aug. 02, 2013 Rise Set
Actual Time 6:23 AM CDT 8:23 PM CDT
Civil Twilight 5:55 AM CDT 8:52 PM CDT
Nautical Twilight 5:20 AM CDT 9:27 PM CDT
Astronomical Twilight 4:42 AM CDT 10:04 PM CDT
Moon 2:46 AM CDT (8/2) 5:21 PM CDT (8/2)
Length of Visible Light 14h 57m
Length of Day
14h 00m
Waning Crescent, 15% of the Moon is Illuminated
Aug 2
Waning Crescent
Aug 6
New
Aug 14
First Quarter
Aug 20
Full
Aug 28
Last Quarter

Hourly Weather History & Observations

Time (CDT) Temp. Heat Index Dew Point Humidity Pressure Visibility Wind Dir Wind Speed Gust Speed Precip Events Conditions
12:53 AM 75.0 °F - 64.9 °F 71% 29.94 in 10.0 mi SSE 9.2 mph - N/A   Clear
1:53 AM 73.9 °F - 66.0 °F 76% 29.93 in 10.0 mi SE 5.8 mph - N/A   Clear
2:53 AM 73.0 °F - 66.0 °F 79% 29.92 in 10.0 mi SE 6.9 mph - N/A   Clear
3:53 AM 73.0 °F - 66.0 °F 79% 29.91 in 10.0 mi SSE 8.1 mph - N/A   Clear
4:53 AM 73.9 °F - 66.0 °F 76% 29.91 in 10.0 mi SSE 8.1 mph - N/A   Clear
5:53 AM 73.9 °F - 66.9 °F 79% 29.93 in 10.0 mi Calm Calm - N/A   Clear
6:53 AM 72.0 °F - 66.9 °F 84% 29.93 in 10.0 mi South 6.9 mph - N/A   Partly Cloudy
7:53 AM 73.0 °F - 66.9 °F 81% 29.94 in 10.0 mi ESE 5.8 mph - N/A   Mostly Cloudy
8:53 AM 73.0 °F - 68.0 °F 84% 29.96 in 10.0 mi Calm Calm - 0.00 in   Mostly Cloudy
9:53 AM 73.9 °F - 70.0 °F 87% 29.92 in 8.0 mi SE 8.1 mph - 0.00 in   Scattered Clouds
10:53 AM 78.1 °F - 71.1 °F 79% 29.93 in 10.0 mi South 10.4 mph - N/A   Mostly Cloudy
11:53 AM 80.1 °F 83.8 °F 72.0 °F 76% 29.92 in 10.0 mi SSW 15.0 mph - N/A   Scattered Clouds
12:53 PM 84.0 °F 91.2 °F 73.9 °F 72% 29.89 in 10.0 mi SSW 15.0 mph 25.3 mph N/A   Scattered Clouds
1:53 PM 86.0 °F 93.8 °F 73.9 °F 67% 29.87 in 10.0 mi South 12.7 mph - N/A   Clear
2:53 PM 87.1 °F 96.3 °F 75.0 °F 67% 29.87 in 10.0 mi South 12.7 mph 17.3 mph 0.01 in   Scattered Clouds
3:53 PM 86.0 °F 93.8 °F 73.9 °F 67% 29.85 in 10.0 mi SSW 10.4 mph - N/A   Partly Cloudy
4:53 PM 88.0 °F 97.5 °F 75.0 °F 65% 29.85 in 10.0 mi South 11.5 mph - N/A   Scattered Clouds
5:53 PM 82.0 °F 87.9 °F 73.9 °F 76% 29.85 in 10.0 mi South 13.8 mph - 0.00 in   Scattered Clouds
6:53 PM 84.0 °F 91.2 °F 73.9 °F 72% 29.85 in 10.0 mi South 6.9 mph - 0.00 in   Mostly Cloudy
7:53 PM 84.0 °F 91.9 °F 75.0 °F 74% 29.86 in 10.0 mi Calm Calm - N/A   Clear
8:53 PM 80.1 °F 85.1 °F 75.0 °F 85% 29.87 in 9.0 mi NE 5.8 mph - N/A   Clear
9:53 PM 79.0 °F - 73.9 °F 84% 29.88 in 9.0 mi ENE 4.6 mph - N/A   Clear
10:53 PM 78.1 °F - 73.9 °F 87% 29.87 in 8.0 mi East 6.9 mph - N/A   Clear
11:53 PM 77.0 °F - 73.9 °F 90% 29.88 in 8.0 mi East 4.6 mph - N/A   Clear